Location: Siratepeler Tepesi
(39.1042°N, 32.0781°E)
Time: 11:26:12
(UTC+00:00)

Cosmos 1727 Rocket - Pass Details

Date: 11 April 2026
Orbit: 961 x 996 km, 82.9° (Epoch: 14 May)

Event Time Altitude Azimuth Distance (km) Brightness Sun altitude
Rises 19:35:54 0° 350° (N) 3,722 7.8 -32.8°
Reaches altitude 10° 19:38:27 10° 349° (N) 2,768 7.0 -33.1°
Enters shadow 19:43:51 63° 321° (NW) 1,099 4.3 -33.8°
